WA5GP Weather Reports


time (UTC)temp
C
wind
direction
speed
KPH
gust
KPH
rain 1hr
cm
rain 24hr
cm
rain mn
cm
humidity
%
barometer
mb
20260507044549 11 35 0.0 3.2 0.00 0.00 0.00 87 1011.4
20260507043047 11 93 0.0 4.8 0.00 0.00 0.00 87 1011.5
20260507041556 11 87 0.0 3.2 0.00 0.00 0.00 86 1011.5
20260507040027 11 79 0.0 4.8 0.00 0.00 0.00 85 1011.4
20260507034535 11 94 0.0 3.2 0.00 0.00 0.00 84 1011.2
20260507033045 12 85 0.0 4.8 0.00 0.00 0.00 84 1010.9
20260507031551 12 80 1.6 6.4 0.00 0.00 0.00 83 1010.6
20260507030022 12 91 1.6 4.8 0.00 0.00 0.00 83 1010.6
20260507024524 12 93 0.0 0.0 0.00 0.00 0.00 82 1010.5
20260507023033 12 84 0.0 3.2 0.00 0.00 0.00 81 1010.4
20260507021534 13 85 1.6 4.8 0.00 0.00 0.00 80 1010.2
20260507020016 13 87 1.6 4.8 0.00 0.00 0.00 78 1010.1
20260507014528 14 85 3.2 4.8 0.00 0.00 0.00 76 1009.9
20260507013022 15 86 1.6 6.4 0.00 0.00 0.00 73 1009.7
20260507011528 16 65 0.0 4.8 0.00 0.00 0.00 69 1009.4
20260507010015 17 63 0.0 1.6 0.00 0.00 0.00 66 1009.1
20260507004521 17 58 0.0 4.8 0.00 0.00 0.00 67 1009.1
20260507003030 17 53 0.0 8.0 0.00 0.00 0.00 66 1009.1
20260507001537 17 55 1.6 9.7 0.00 0.00 0.00 65 1009.0
20260507000031 17 68 1.6 11.3 0.00 0.00 0.00 64 1008.9
20260506234521 17 19 3.2 9.7 0.00 0.00 0.00 65 1008.7
20260506233024 16 31 3.2 12.9 0.00 0.00 0.00 66 1008.5
20260506231528 17 342 8.0 16.1 0.00 0.00 0.00 66 1008.3
20260506230007 16 23 3.2 20.9 0.00 0.00 0.00 67 1008.4
20260506224511 16 30 3.2 20.9 0.00 0.00 0.00 67 1008.3
20260506223013 16 15 4.8 19.3 0.00 0.00 0.00 67 1008.2
20260506221525 16 34 8.0 22.5 0.00 0.00 0.00 66 1008.1
20260506220018 17 58 6.4 19.3 0.00 0.00 0.00 66 1007.8
20260506214514 17 345 9.7 16.1 0.00 0.00 0.00 62 1007.9
20260506213016 17 16 9.7 25.7 0.00 0.00 0.00 64 1007.9
20260506211518 17 22 12.9 25.7 0.00 0.00 0.00 65 1007.9
20260506210007 18 9 14.5 24.1 0.00 0.00 0.00 64 1007.9
20260506204510 18 91 6.4 19.3 0.00 0.00 0.00 63 1008.0
20260506203011 18 30 6.4 14.5 0.00 0.00 0.00 62 1007.9
20260506201518 18 55 1.6 24.1 0.00 0.00 0.00 64 1008.1
20260506200003 17 15 4.8 14.5 0.00 0.00 0.00 66 1008.4
20260506194507 17 136 3.2 16.1 0.00 0.00 0.00 66 1008.3
20260506193006 17 110 3.2 16.1 0.00 0.00 0.00 65 1008.1
20260506191509 17 357 8.0 16.1 0.00 0.00 0.00 63 1008.3
20260506190101 17 137 3.2 14.5 0.00 0.00 0.00 65 1008.5
20260506184556 17 30 6.4 22.5 0.00 0.00 0.00 67 1008.6
20260506183058 17 343 3.2 11.3 0.00 0.00 0.00 64 1008.6
20260506181501 16 18 8.0 17.7 0.00 0.00 0.00 66 1008.6
20260506180058 15 8 8.0 24.1 0.00 0.00 0.00 69 1008.7
20260506174552 15 34 6.4 20.9 0.00 0.00 0.00 68 1008.7
20260506173055 15 48 3.2 14.5 0.00 0.00 0.00 69 1009.2
20260506171601 14 49 8.0 24.1 0.00 0.00 0.00 70 1009.1
20260506170043 15 290 1.6 20.9 0.00 0.00 0.00 70 1008.7
20260506164538 13 351 11.3 20.9 0.00 0.00 0.00 70 1009.1
20260506163057 13 20 9.7 20.9 0.00 0.00 0.00 70 1009.2
20260506161541 13 352 8.0 17.7 0.00 0.00 0.00 70 1008.8
20260506160021 13 32 14.5 33.8 0.00 0.00 0.00 70 1008.1
20260506154513 12 2 11.3 32.2 0.00 0.00 0.00 71 1008.1
20260506153010 12 27 11.3 29.0 0.00 0.00 0.00 74 1008.3
20260506151518 12 36 6.4 19.3 0.00 0.00 0.00 76 1009.0
20260506150009 11 49 3.2 6.4 0.00 0.00 0.00 76 1010.0
20260506144523 11 46 0.0 9.7 0.00 0.00 0.00 77 1010.5
20260506143020 11 28 4.8 12.9 0.00 0.00 0.00 77 1010.1
20260506141515 10 30 6.4 16.1 0.00 0.00 0.00 79 1009.1
20260506140104 10 56 4.8 19.3 0.00 0.00 0.00 80 1008.6
20260506134502 10 32 4.8 14.5 0.00 0.00 0.00 81 1008.8
20260506133003 10 15 0.0 8.0 0.00 0.00 0.00 82 1009.1
20260506131605 10 18 4.8 14.5 0.00 0.00 0.00 82 1008.6
20260506130041 10 356 6.4 17.7 0.00 0.00 0.00 84 1008.0
20260506124539 10 50 6.4 14.5 0.00 0.00 0.00 84 1007.5
20260506123039 10 60 6.4 22.5 0.00 0.00 0.00 85 1007.1
20260506121545 10 30 4.8 14.5 0.00 0.00 0.00 86 1006.8
20260506120029 10 26 4.8 16.1 0.00 0.00 0.00 86 1006.9
20260506114541 10 44 3.2 20.9 0.00 0.00 0.00 87 1006.9
20260506113039 10 348 14.5 25.7 0.00 0.00 0.00 86 1006.9
20260506111541 10 335 12.9 25.7 0.00 0.00 0.00 85 1007.2
20260506110016 10 48 11.3 30.6 0.00 0.00 0.00 85 1006.6
20260506104511 10 19 9.7 22.5 0.00 0.00 0.00 84 1006.2
20260506103021 10 355 8.0 17.7 0.00 0.00 0.00 84 1006.0
20260506101524 10 39 8.0 19.3 0.00 0.00 0.00 83 1006.0
20260506100004 10 46 4.8 19.3 0.00 0.00 0.00 82 1005.9
20260506094501 10 19 4.8 24.1 0.00 0.00 0.00 82 1005.7
20260506093102 10 40 11.3 22.5 0.00 0.00 0.00 82 1005.4
20260506091559 10 42 8.0 19.3 0.00 0.00 0.00 83 1004.9
20260506090041 10 37 3.2 12.9 0.00 0.00 0.00 82 1004.7
20260506084550 11 34 3.2 11.3 0.00 0.00 0.00 84 1004.6
20260506083049 10 25 8.0 14.5 0.00 0.00 0.00 86 1004.7
20260506081551 10 12 3.2 11.3 0.00 0.00 0.00 85 1004.5
20260506073025 11 52 3.2 11.3 0.00 0.00 0.00 83 1004.3
20260506071531 11 18 4.8 11.3 0.00 0.00 0.00 84 1004.6
20260506061529 11 355 4.8 8.0 0.00 0.00 0.00 86 1004.0